Simultaneous Nadir Overpasses (SNOs) Predictions

Prediction of SNOs between METOP-B and NOAA-19 Satellite Orbit:

Table of predicted SNOs for the next 14.0 days since TLE Epoch: 9/25/2021
Index Date (METOP-B) Time (METOP-B) Lat,Lon (METOP-B) SZA (METOP-B ) Date (NOAA-19) Time (NOAA-19) Lat,Lon (NOAA-19) SZA (NOAA-19 ) Distance(km) Time Diff (sec)
1 09/30/2021 14:00:24 -80.66,-179.49 94.84 09/30/2021 13:59:11 -80.67, 179.41 94.95 19.77 73
2 09/30/2021 14:51:05 80.65, -12.40 85.15 09/30/2021 14:50:14 80.64, -12.54 85.11 2.47 51
3 09/30/2021 15:41:47 -80.63, 154.69 94.88 09/30/2021 15:41:09 -80.64, 154.71 94.88 1.40 38
4 09/30/2021 16:32:27 80.64, -37.89 85.15 09/30/2021 16:32:14 80.64, -37.95 85.15 1.20 13
5 09/30/2021 17:23:09 -80.62, 129.21 94.87 09/30/2021 17:23:09 -80.64, 129.29 94.85 2.61 0
6 09/30/2021 18:13:49 80.63, -63.37 85.16 09/30/2021 18:14:14 80.64, -63.37 85.18 0.98 25
7 09/30/2021 19:04:30 -80.64, 104.06 94.82 09/30/2021 19:05:08 -80.63, 104.23 94.79 3.28 38
8 09/30/2021 19:55:11 80.62, -88.86 85.17 09/30/2021 19:56:14 80.63, -88.78 85.21 2.17 63



Historial Predications of SNOs between METOP-B and NOAA-19
